Probability
0 0 0 0 0 0 0 0 0 0 0 0 0 0 0 0 0 0 1 3 3 3 3 4 3 1 0 1 2 1 0 0 0 0 0 0 0 0 0 0 0 0 0 0
0 0 0 0 0 0 0 0 0 0 0 0 0 0 0 0 1 1 2 3 3 3 2 2 2 1 0 1 1 1 0 1 1 1 1 0 0 0 0 0 0 0 0 0
0 0 0 0 0 0 0 0 0 0 0 0 0 0 0 1 2 3 3 3 3 2 1 1 1 1 0 0 0 0 1 2 2 2 2 1 1 1 1 0 0 0 0 0
0 0 0 0 0 0 0 0 0 0 0 0 0 0 0 1 2 3 3 2 2 1 0 0 0 0 0 0 0 1 3 3 3 3 3 3 2 2 1 0 0 0 0 0
0 0 0 0 0 0 0 0 0 0 0 0 0 0 0 0 1 2 2 2 2 1 0 0 0 1 1 1 1 2 4 3 3 2 2 2 2 1 0 0 0 0 0 0
0 0 0 0 0 0 0 0 0 0 0 0 0 0 0 0 0 1 2 3 2 1 0 0 1 2 2 2 1 2 3 3 2 2 1 1 1 0 0 0 0 0 0 0
0 0 0 0 0 0 0 0 0 0 0 0 0 0 0 0 1 2 3 3 2 1 0 1 2 3 2 1 1 1 2 3 4 2 1 0 0 0 0 0 0 0 0 0
0 0 0 0 0 0 0 0 0 0 0 0 0 0 0 1 3 4 3 3 2 1 1 2 3 3 1 0 0 0 1 3 4 3 1 0 0 0 0 0 0 0 0 0
0 0 0 0 0 0 0 0 0 0 0 0 0 0 1 3 6 6 4 3 2 1 1 2 3 2 1 0 0 0 1 3 4 2 1 0 0 0 0 0 0 0 0 0
0 0 0 0 0 0 0 0 0 0 0 0 0 0 2 5 8 7 5 3 2 1 0 1 1 2 1 0 0 0 1 3 4 2 0 0 0 0 0 0 0 0 0 0
0 0 0 0 0 0 0 0 0 0 0 0 0 0 2 6 8 6 4 3 2 1 1 0 1 1 1 0 1 0 1 3 4 3 1 0 0 0 0 0 0 0 0 0
0 0 0 0 0 0 0 0 0 0 0 0 0 0 1 4 6 5 2 2 2 2 2 2 2 1 0 0 0 0 0 1 3 2 1 0 0 0 0 0 0 0 0 0
0 0 0 0 0 0 0 0 0 0 0 0 0 0 1 3 4 2 1 2 3 3 3 3 3 1 1 1 0 0 0 1 1 2 1 1 0 0 0 0 0 0 0 0
0 0 0 0 0 0 0 0 0 0 0 0 0 0 1 3 3 2 1 2 3 4 4 4 3 3 2 2 1 0 0 1 1 2 2 1 0 0 0 0 0 0 0 0
0 0 0 0 0 0 0 0 0 0 0 0 0 1 3 4 4 4 3 4 4 5 5 4 3 2 2 2 1 0 0 1 1 2 3 2 1 0 0 0 0 0 0 0
0 0 0 0 0 0 0 0 1 1 1 0 0 2 3 3 3 3 3 4 5 5 4 2 1 1 1 1 1 0 0 0 1 1 2 2 2 2 1 0 0 0 0 0
0 0 0 0 0 0 0 1 2 2 1 0 0 1 1 1 1 1 1 2 3 3 1 1 0 0 0 0 1 0 0 0 0 1 2 3 3 3 2 0 0 0 0 0
0 0 0 0 0 0 0 1 2 3 2 1 0 0 0 0 0 0 0 0 1 1 0 0 0 0 0 0 0 0 0 0 0 1 2 3 3 3 1 0 1 1 0 0
0 0 0 0 0 0 0 0 1 2 2 1 0 0 0 0 0 0 0 1 1 1 1 0 0 0 1 0 0 0 0 0 0 1 2 3 3 2 1 1 1 1 0 0
0 0 0 0 0 0 0 0 0 1 2 2 1 1 1 1 1 1 1 2 2 2 1 0 0 0 0 0 0 1 1 1 0 0 1 2 2 2 2 2 1 0 0 0
0 0 0 0 0 0 0 0 0 0 1 1 2 2 2 2 2 3 3 3 3 2 1 0 0 0 0 0 1 2 3 2 1 0 0 1 1 2 2 1 0 0 0 0
0 0 0 0 0 0 0 0 0 0 0 0 1 2 2 3 3 4 4 4 3 1 0 0 0 0 0 0 1 2 3 2 1 0 0 0 0 1 1 0 0 0 0 0
0 0 0 0 0 0 0 0 0 0 0 0 0 1 1 1 2 3 3 3 2 1 0 0 0 0 0 0 0 1 2 1 0 0 0 0 0 0 0 0 0 0 0 0
0 0 0 0 0 0 0 0 0 0 0 0 0 0 0 0 1 1 2 1 1 0 0 0 0 0 0 0 0 0 0 0 0 0 0 0 0 0 0 0 0 0 0 0
0 0 0 0 0 0 0 0 0 0 0 0 0 0 0 0 0 1 1 1 0 0 0 0 0 0 0 0 0 0 0 0 0 0 0 0 0 0 0 0 0 0 0 0
0 0 0 0 0 0 0 0 0 0 0 0 0 0 0 0 0 0 0 0 0 0 0 0 0 0 0 0 0 0 0 0 0 0 0 0 0 0 0 0 0 0 0 0
0 0 0 0 0 0 0 0 0 0 0 0 0 0 0 0 0 0 0 0 0 0 0 0 0 0 0 0 0 0 0 0 0 0 0 0 0 0 0 0 0 0 0 0
Wind_Speed
9 9 9 10 11 11 11 11 10 9 8 6 3 2 2 2 3 3 4 4 4 4 4 4 4 4 5 5 5 5 5 4 4 3 3 3 3 3 3 3 4 3 3 3
11 11 12 13 14 14 14 13 13 12 10 6 3 2 2 2 3 3 3 4 4 4 4 4 4 4 5 6 6 5 5 4 3 3 3 4 3 4 3 3 3 3 3 3
9 9 11 14 12 12 12 11 11 12 8 4 4 3 1 1 3 3 4 4 3 3 4 4 5 5 5 6 7 6 5 5 4 4 4 4 4 4 3 3 4 3 3 3
7 8 12 5 4 7 9 9 9 8 6 5 5 2 0 1 2 3 3 4 3 3 3 3 3 4 4 5 7 6 6 5 5 4 5 4 4 4 4 3 3 3 3 4
6 8 10 7 5 5 7 8 7 7 6 6 4 2 2 3 2 3 4 4 3 3 2 3 3 4 4 4 6 7 6 5 6 5 5 5 5 4 4 4 3 3 3 4
7 8 8 3 2 4 6 7 3 4 4 4 4 3 2 1 2 3 3 3 2 2 2 2 3 4 4 4 5 6 6 6 6 6 6 5 5 5 4 4 4 3 3 4
10 10 7 2 3 3 5 3 3 3 3 3 3 2 1 1 2 2 2 3 3 3 2 2 2 3 4 4 5 5 5 6 6 6 6 6 5 4 5 4 4 3 3 3
8 9 6 1 2 3 4 5 4 4 4 3 2 2 1 1 1 1 1 3 3 3 2 2 2 3 4 3 3 5 6 6 5 5 5 5 5 5 5 5 5 4 4 3
5 4 4 4 5 5 7 8 5 4 4 4 3 3 2 2 2 2 2 3 3 3 3 2 3 3 3 3 4 5 6 6 5 5 4 5 5 5 5 5 4 4 4 3
7 6 6 6 5 6 7 7 7 5 5 5 4 3 3 3 2 2 2 2 3 3 4 3 3 3 3 4 5 5 6 6 5 5 4 5 4 4 4 4 4 4 4 4
10 7 6 5 4 6 7 8 7 6 5 5 5 4 3 2 2 2 2 2 3 3 4 4 3 3 3 3 5 5 6 5 5 5 5 4 4 3 4 3 4 4 4 4
8 7 6 7 6 7 7 7 7 7 6 5 5 5 4 2 2 2 3 3 3 3 4 4 4 4 4 3 4 5 5 5 4 4 4 4 4 3 2 3 5 6 6 5
8 7 7 7 7 7 7 7 8 8 7 6 5 4 4 3 2 2 3 3 3 3 4 4 4 4 4 4 4 5 5 4 4 4 4 4 4 4 3 2 4 4 5 6
6 7 7 7 7 7 7 7 8 8 7 6 5 4 4 4 3 3 3 3 3 3 3 3 4 4 4 4 4 4 4 5 5 4 4 4 4 4 4 5 3 2 2 5
7 7 8 7 7 7 7 6 7 8 7 6 5 4 4 3 3 3 3 3 3 3 3 3 4 4 3 4 4 5 4 4 4 4 4 4 4 4 4 5 4 4 3 3
8 8 7 7 7 8 7 7 7 7 6 5 4 4 3 3 3 3 3 3 4 4 4 4 4 4 3 3 3 4 4 6 5 4 4 4 4 4 4 5 5 5 5 4
8 8 7 7 7 7 7 6 6 7 6 5 4 4 4 3 3 3 3 3 4 4 4 4 4 4 4 4 3 3 4 5 7 5 4 4 4 5 5 5 5 5 4 6
6 6 6 7 6 6 6 6 5 6 5 4 4 4 4 3 3 3 3 3 3 3 3 4 4 4 4 4 3 3 4 4 5 5 4 4 4 4 4 5 5 5 4 6
5 5 5 5 6 5 5 5 5 5 5 4 3 3 3 3 2 2 2 2 3 3 3 3 4 4 4 4 3 3 4 5 4 4 4 5 5 4 4 4 5 5 6 5
4 4 4 4 4 4 4 5 5 4 4 3 2 2 2 2 2 2 2 2 2 2 2 2 4 4 3 4 3 3 4 5 5 4 4 4 4 4 4 4 5 5 5 5
5 4 4 4 4 4 4 4 4 4 3 2 2 2 2 3 2 1 1 1 1 0 1 2 2 2 2 2 3 3 4 4 4 4 4 4 4 4 4 4 5 5 5 5
5 4 4 4 4 4 4 3 3 3 2 2 2 2 2 2 1 1 1 1 0 0 1 2 2 2 2 2 3 3 3 4 4 3 4 4 4 4 4 5 5 5 5 5
4 4 4 4 4 4 4 3 3 3 2 2 2 2 2 2 2 1 1 1 0 1 1 1 2 2 2 2 3 3 3 3 3 3 3 4 4 4 4 5 4 4 5 5
5 5 4 3 3 3 3 3 3 3 3 3 2 2 2 2 2 2 1 0 0 1 1 2 2 3 3 3 3 3 3 3 3 3 4 3 3 4 4 4 4 4 4 5
4 4 3 3 3 2 3 2 2 2 2 2 2 3 2 2 2 2 2 1 1 0 1 2 3 3 3 2 2 2 2 3 3 3 3 4 4 3 4 4 4 4 4 5
4 3 3 2 2 2 2 1 1 1 2 2 2 2 2 1 2 2 1 1 1 1 1 1 1 2 2 2 2 2 2 2 3 3 3 3 3 3 3 4 4 4 4 4
3 3 2 2 2 2 2 1 1 2 2 2 2 2 2 2 1 1 2 1 1 1 0 1 1 1 2 2 2 2 2 2 2 3 3 3 3 3 3 4 3 3 3 4
Wind_Direction
276 285 280 262 257 254 254 262 267 271 275 269 247 189 165 149 134 125 128 133 138 143 149 152 156 166 156 151 155 161 166 179 175 167 159 149 151 157 153 145 145 147 141 126
274 271 272 269 256 247 247 252 257 264 266 265 263 250 185 161 154 150 144 137 141 154 159 166 164 172 160 155 161 162 166 168 157 155 148 148 157 146 137 135 131 123 127 128
270 266 273 260 251 246 242 243 250 255 262 279 278 255 228 169 159 162 146 141 144 163 171 175 178 177 171 167 166 167 163 161 160 157 149 152 145 128 127 131 130 131 134 124
268 267 251 256 264 254 252 250 252 259 259 262 268 254 152 241 189 158 151 152 157 161 168 177 176 169 166 168 165 164 162 162 157 155 148 145 140 145 145 137 137 139 138 135
253 259 266 258 260 259 257 257 256 259 256 257 260 235 223 236 180 154 153 155 161 164 166 172 171 168 175 179 166 164 165 165 158 154 151 153 154 158 150 138 137 140 140 140
249 256 257 272 335 309 276 256 264 266 264 255 244 232 223 197 123 123 134 139 149 153 146 159 168 172 181 183 174 170 165 164 163 162 157 159 160 155 146 138 143 143 144 147
245 251 257 315 322 308 254 286 326 298 281 272 260 248 275 34 85 115 137 145 143 143 147 166 177 174 184 187 183 166 155 155 160 161 158 157 153 147 147 147 152 152 149 151
237 244 248 10 294 270 302 316 310 313 305 295 306 298 275 297 170 174 170 151 150 155 158 172 180 179 194 189 169 152 148 149 154 156 158 155 151 151 149 148 153 157 164 167
245 258 298 299 300 314 316 306 310 312 309 305 285 269 252 247 222 210 186 170 167 167 165 179 174 182 200 178 156 153 148 152 154 152 153 153 154 156 156 157 161 166 168 166
254 253 275 288 307 314 315 317 324 327 319 305 287 276 258 238 227 215 186 185 177 175 173 184 186 183 191 170 156 159 158 157 158 156 155 155 156 159 161 166 171 173 171 169
260 267 281 280 298 311 317 319 323 321 316 311 303 293 278 252 230 219 203 186 183 190 185 188 185 175 178 167 158 164 164 161 161 157 157 160 159 161 172 175 177 176 176 170
257 267 274 283 292 299 301 302 304 304 306 301 293 292 286 265 235 224 213 200 199 201 198 187 180 181 178 177 168 163 163 162 157 155 157 160 149 127 87 141 157 158 163 168
272 283 281 283 283 287 287 293 298 297 294 292 290 286 286 276 246 228 220 214 212 209 205 189 175 182 177 177 174 169 167 163 157 158 164 167 163 159 149 100 108 133 155 163
284 288 280 279 283 288 287 290 292 290 286 287 287 283 288 281 262 238 226 222 217 220 210 188 175 184 179 176 178 175 169 169 163 164 168 172 174 172 165 162 155 140 142 154
278 279 274 278 281 287 292 291 289 285 281 282 284 274 271 273 268 256 235 218 213 220 214 194 184 187 181 180 186 179 170 170 168 164 166 171 171 170 166 165 163 156 143 139
281 283 279 273 274 278 279 280 281 286 287 287 287 285 280 275 272 271 245 215 209 213 213 201 195 190 180 181 191 185 179 182 178 170 168 167 168 172 171 170 167 165 166 158
267 271 277 279 278 281 282 280 280 283 285 287 287 288 284 272 266 260 251 227 216 212 207 199 196 190 180 181 193 186 172 174 177 174 175 174 174 178 176 172 171 169 167 165
268 278 284 286 288 288 288 289 285 286 288 294 294 293 286 266 258 254 249 237 228 214 205 195 189 187 182 185 194 189 174 176 180 179 176 177 178 178 175 172 170 164 155 158
286 286 288 292 295 297 298 301 295 290 292 291 293 291 291 281 271 274 257 237 229 230 221 186 184 189 184 183 189 189 177 177 182 177 173 174 180 179 173 169 166 163 159 159
302 299 301 302 304 301 298 298 299 300 299 296 295 297 297 287 269 268 254 238 217 219 226 186 183 188 185 187 195 195 182 181 183 178 172 173 178 175 172 166 161 160 161 164
323 321 319 316 316 311 302 297 300 304 315 322 317 304 296 298 292 281 253 257 273 302 229 193 183 174 171 190 205 197 182 178 177 176 174 172 173 170 168 166 165 164 165 167
321 323 321 318 314 312 315 317 317 320 329 337 343 329 322 325 327 315 304 254 165 224 227 179 166 156 171 190 198 193 182 175 173 169 168 170 172 174 174 170 168 166 165 166
314 315 312 313 315 317 327 337 341 346 349 348 346 335 333 333 330 314 303 320 124 186 216 185 167 169 191 197 197 189 181 174 171 169 170 174 176 174 173 170 166 163 163 163
316 309 305 309 316 324 332 341 350 353 354 352 347 339 330 330 336 338 324 309 202 216 214 183 187 190 194 193 183 178 180 176 174 172 170 172 173 169 165 163 161 161 161 160
312 312 317 322 320 319 319 330 343 350 347 344 343 340 335 334 327 327 332 349 36 304 244 194 182 184 187 179 169 175 176 174 171 163 161 162 165 164 158 157 160 161 160 161
323 323 318 315 313 305 307 325 338 337 334 335 336 337 339 349 353 347 337 330 318 285 266 214 186 177 172 162 161 163 155 154 156 154 155 154 155 153 153 158 161 160 160 160
325 323 319 320 320 313 310 322 335 330 332 335 335 334 336 346 357 346 331 318 300 285 236 169 157 152 155 153 153 151 146 145 146 144 144 143 147 149 152 154 154 153 154 158